STARLINK-34860, 65357

Orbit data source: Space-Track

STARLINK-34860, 65357 is a payload satellite owned by SpaceX/Seattle (US) in LEO that was launched on Thu, 28 Aug 2025 UTC via an FALCON 9 launch vehicle from the Air Force Eastern Test Range (AFETR). Payload-class satellites include a variety of spacecraft equipped with specific instruments for various scientific and technological missions. These include communications satellites like Starlink; space stations such as the ISS; scientific satellites like the Hubble; Earth observation satellites from companies like Planet Labs, Umbra, and HawkEye 360; GPS; miniature CubeSats for education and research; and military/defense satellites.

Loading next visibility...
Identifier
65357, 2025-190G
Orbit
LEO
Country
Flag of USUS
Related business
Manufacturer
SpaceX/Seattle
Mission
Operational Commercial Communications
Bus & Motor
STARLINK V2MO, Unknown motor
Mass
575 kg wet, ~530 kg dry
Launch date (UTC)
2025-08-28 (10 months ago)
Launch vehicle
FALCON 9
Launch site
Air Force Eastern Test Range (AFETR)
Object type
Payload
Rocket body
Debris
Shape & HBR
Box + 2 Pan, 17.7 m
Radar Cross Section
36.964 m², Large (>1 m²)

Expand to show TLE details & history
Last TLE update: 12 hours ago

TLE from 12 hours ago
0 STARLINK-34860
1 65357U 25190G   26171.36167484  .00011684  00000-0  35633-3 0  9992
2 65357  53.1579  50.6536 0002030  77.4290 282.6940 15.34405208 45010
Epoch: 2026-06-20T08:40Z
TLE epoch observation values (Epoch: 2026-06-20T08:40:48.706Z)
Latitude
0.00003°
Longitude
11.87329°
Altitude
463.284 km
Speed
7.636 km/s
True Right ascension
03h 22m 36s
True Declination
0° 00' 00"
Sunlit
Object was in daylight at epoch
Visualization orbit readout
Latitude
Unknown
Longitude
Unknown
Altitude
Unknown
Speed
Unknown
Apparent Right ascension
Unknown
Apparent Declination
Unknown
Sunlit
N/A
Visualization observer readout
Local Sidereal Time
07:21:38
Azimuth
Unknown
Elevation
Unknown
Doppler factor
Unknown
Orbital elements
Apogee altitude
464.334 km
Perigee altitude
461.556 km
Semi-major axis
6,841.082 km
Eccentricity
0.0002
Inclination
53.1579°
RAAN
50.6536°
Arg. of periapsis
77.429°
True anomaly
282.67131°
Mean anomaly
282.694°
Eccentric anomaly
282.68265°
Mean motion
3.8358 °/min
Orbital period
93.85 mins
BSTAR
0.00035633
Loading maneuver chart data...
Computing Atmospheric mass density...
Loading historical data...
Loading historical data...
Loading historical data...
Loading historical data...
Loading historical data...
Loading historical data...
Loading historical data...

Documentation

Showing up to 5 results
|